Weather History for Eureka Airport, NV

Change the Weather History Date:

Monday, December 3, 2012

  Actual Average Record
Temperature  
Mean Temperature 2 °C -  
Max Temperature 9 °C - - ()
Min Temperature -5 °C - - ()
Degree Days  
Heating Degree Days 30    
Moisture  
Dew Point -4 °C    
Average Humidity 76    
Maximum Humidity 93    
Minimum Humidity 40    
Precipitation  
Precipitation 0.0 mm - - ()
Sea Level Pressure  
Sea Level Pressure 1022.71 hPa    
Wind  
Wind Speed 3 km/h ()    
Max Wind Speed 15 km/h    
Max Gust Speed -    
Visibility 16.1 kilometers    
Events      
T = Trace of Precipitation, MM = Missing Value Source: Averaged Metar Reports

Daily Weather History Graph

Daily Weather History Graph

Search for Another Location

Airport:

Trip Planner

Search our weather history database for the weather conditions in past years. The results will help you decide how hot, cold, wet, or windy it might be!

Date:

Astronomy

Dec. 03, 2012 Rise Set
Actual Time 6:48 AM PST 4:19 PM PST
Civil Twilight 6:18 AM PST 4:49 PM PST
Nautical Twilight 5:44 AM PST 5:23 PM PST
Astronomical Twilight 5:12 AM PST 5:55 PM PST
Moon 9:10 PM PST (12/3) 10:14 AM PST (12/3)
Length of Visible Light 10h 31m
Length of Day
9h 31m
Waning Gibbous, 77% of the Moon is Illuminated
Dec 3
Waning Gibbous
Dec 6
Last Quarter
Dec 13
New
Dec 19
First Quarter
Dec 28
Full

Hourly Weather History & Observations

Time (PST) Temp. Windchill Dew Point Humidity Pressure Visibility Wind Dir Wind Speed Gust Speed Precip Events Conditions
12:15 AM -3.0 °C -6.0 °C -4.0 °C 93% 1020.2 hPa 16.1 km SW 7.4 km/h / 2.1 m/s - N/A   Clear
12:35 AM -3.0 °C -6.0 °C -4.0 °C 93% 1019.5 hPa 16.1 km South 7.4 km/h / 2.1 m/s - N/A   Clear
12:55 AM -3.0 °C -5.2 °C -4.0 °C 93% 1019.5 hPa 16.1 km SSW 5.6 km/h / 1.5 m/s - N/A   Clear
1:15 AM -4.0 °C -7.8 °C -5.0 °C 93% 1019.9 hPa 16.1 km WSW 9.3 km/h / 2.6 m/s - N/A   Clear
1:35 AM -4.0 °C -7.2 °C -5.0 °C 93% 1020.2 hPa 16.1 km South 7.4 km/h / 2.1 m/s - N/A   Clear
1:55 AM -3.0 °C - -5.0 °C 86% 1020.2 hPa 16.1 km Calm Calm - N/A   Clear
2:15 AM -4.0 °C - -5.0 °C 93% 1020.5 hPa 16.1 km Calm Calm - N/A   Clear
2:35 AM -4.0 °C - -5.0 °C 93% 1020.5 hPa 16.1 km Calm Calm - N/A   Clear
2:55 AM -4.0 °C - -6.0 °C 86% 1020.5 hPa 16.1 km Calm Calm - N/A   Clear
3:15 AM -3.0 °C - -5.0 °C 86% 1020.2 hPa 16.1 km Calm Calm - N/A   Clear
3:35 AM -4.0 °C - -6.0 °C 86% 1019.9 hPa 16.1 km Calm Calm - N/A   Clear
3:55 AM -3.0 °C - -5.0 °C 86% 1020.2 hPa 16.1 km Calm Calm - N/A   Clear
4:15 AM -4.0 °C - -5.0 °C 93% 1020.5 hPa 16.1 km Calm Calm - N/A   Clear
4:35 AM -5.0 °C - -6.0 °C 93% 1020.5 hPa 16.1 km Calm Calm - N/A   Clear
4:55 AM -5.0 °C - -7.0 °C 86% 1020.5 hPa 16.1 km Calm Calm - N/A   Clear
5:15 AM -5.0 °C - -6.0 °C 93% 1021.2 hPa 16.1 km Calm Calm - N/A   Clear
6:15 AM -5.0 °C - -7.0 °C 86% 1021.6 hPa 16.1 km Calm Calm - N/A   Mostly Cloudy
6:35 AM -4.0 °C - -5.0 °C 93% 1021.9 hPa 16.1 km Calm Calm - N/A   Overcast
6:55 AM -3.0 °C - -5.0 °C 86% 1021.9 hPa 16.1 km Calm Calm - N/A   Scattered Clouds
7:15 AM -3.0 °C - -4.0 °C 93% 1021.9 hPa 16.1 km Calm Calm - N/A   Mostly Cloudy
7:35 AM -2.0 °C - -4.0 °C 86% 1021.9 hPa 16.1 km Calm Calm - N/A   Mostly Cloudy
7:55 AM -2.0 °C - -4.0 °C 86% 1021.9 hPa 16.1 km Calm Calm - N/A   Overcast
8:35 AM -2.0 °C - -3.0 °C 93% 1022.6 hPa 16.1 km Calm Calm - N/A   Scattered Clouds
8:55 AM 0.0 °C - -2.0 °C 87% 1023.2 hPa 16.1 km Calm Calm - N/A   Overcast
9:15 AM 0.0 °C - -2.0 °C 87% 1023.6 hPa 16.1 km Calm Calm - N/A   Mostly Cloudy
9:55 AM 2.0 °C - -3.0 °C 70% 1023.9 hPa 16.1 km Calm Calm - N/A   Partly Cloudy
10:15 AM 2.0 °C 0.5 °C -2.0 °C 75% 1023.9 hPa 16.1 km SSW 5.6 km/h / 1.5 m/s - N/A   Clear
10:35 AM 3.0 °C 1.6 °C -3.0 °C 65% 1023.9 hPa 16.1 km WSW 5.6 km/h / 1.5 m/s - N/A   Clear
10:55 AM 4.0 °C - -3.0 °C 61% 1023.6 hPa 16.1 km Calm Calm - N/A   Clear
11:15 AM 5.0 °C - -4.0 °C 53% 1023.6 hPa 16.1 km Calm Calm - N/A   Scattered Clouds
11:35 AM 7.0 °C - -4.0 °C 46% 1023.2 hPa 16.1 km Calm Calm - N/A   Mostly Cloudy
11:55 AM 8.0 °C - -4.0 °C 43% 1023.2 hPa 16.1 km Calm Calm - N/A   Scattered Clouds
12:15 PM 8.0 °C - -3.0 °C 46% 1023.2 hPa 16.1 km Calm Calm - N/A   Partly Cloudy
12:40 PM 8.0 °C 6.1 °C -3.0 °C 46% 1022.9 hPa 16.1 km ENE 11.1 km/h / 3.1 m/s - N/A   Clear
12:55 PM 8.0 °C 6.4 °C -3.0 °C 46% 1022.9 hPa 16.1 km NNE 9.3 km/h / 2.6 m/s - N/A   Clear
1:15 PM 9.0 °C - -4.0 °C 40% 1022.9 hPa 16.1 km ENE 7.4 km/h / 2.1 m/s - N/A   Clear
1:55 PM 9.0 °C - -4.0 °C 40% 1022.9 hPa 16.1 km Calm Calm - N/A   Clear
2:15 PM 9.0 °C - -4.0 °C 40% 1022.9 hPa 16.1 km Calm Calm - N/A   Clear
2:35 PM 9.0 °C - -4.0 °C 40% 1022.6 hPa 16.1 km Calm Calm - N/A   Clear
2:55 PM 9.0 °C - -4.0 °C 40% 1022.6 hPa 16.1 km Calm Calm - N/A   Clear
3:15 PM 9.0 °C - -3.0 °C 43% 1022.9 hPa 16.1 km Calm Calm - N/A   Clear
3:55 PM 8.0 °C - -2.0 °C 50% 1023.2 hPa 16.1 km Calm Calm - N/A   Clear
4:15 PM 7.0 °C 6.2 °C -2.0 °C 53% 1022.9 hPa 16.1 km East 5.6 km/h / 1.5 m/s - N/A   Clear
4:35 PM 4.0 °C 2.1 °C -2.0 °C 65% 1022.9 hPa 16.1 km East 7.4 km/h / 2.1 m/s - N/A   Clear
4:55 PM 2.0 °C -0.7 °C -2.0 °C 75% 1023.2 hPa 16.1 km SW 9.3 km/h / 2.6 m/s - N/A   Clear
5:15 PM 0.0 °C -2.5 °C -2.0 °C 87% 1023.6 hPa 16.1 km South 7.4 km/h / 2.1 m/s - N/A   Clear
5:35 PM 0.0 °C -2.5 °C -3.0 °C 80% 1023.9 hPa 16.1 km SSW 7.4 km/h / 2.1 m/s - N/A   Clear
5:55 PM 0.0 °C -3.1 °C -3.0 °C 80% 1023.9 hPa 16.1 km South 9.3 km/h / 2.6 m/s - N/A   Clear
6:15 PM 0.0 °C -3.1 °C -3.0 °C 80% 1023.9 hPa 16.1 km South 9.3 km/h / 2.6 m/s - N/A   Clear
6:35 PM 0.0 °C -1.8 °C -3.0 °C 80% 1023.9 hPa 16.1 km South 5.6 km/h / 1.5 m/s - N/A   Clear
6:55 PM 0.0 °C -2.5 °C -3.0 °C 80% 1024.3 hPa 16.1 km South 7.4 km/h / 2.1 m/s - N/A   Clear
7:15 PM 0.0 °C -1.8 °C -3.0 °C 80% 1024.3 hPa 16.1 km SSE 5.6 km/h / 1.5 m/s - N/A   Clear
7:35 PM 0.0 °C -1.8 °C -3.0 °C 80% 1024.3 hPa 16.1 km SSW 5.6 km/h / 1.5 m/s - N/A   Clear
7:55 PM -1.0 °C -3.7 °C -3.0 °C 86% 1024.3 hPa 16.1 km South 7.4 km/h / 2.1 m/s - N/A   Clear
8:15 PM -1.0 °C -4.8 °C -3.0 °C 86% 1023.9 hPa 16.1 km South 11.1 km/h / 3.1 m/s - N/A   Clear
8:35 PM -2.0 °C -4.9 °C -3.0 °C 93% 1024.3 hPa 16.1 km SSW 7.4 km/h / 2.1 m/s - N/A   Clear
8:55 PM -1.0 °C - -3.0 °C 86% 1024.3 hPa 16.1 km Calm Calm - N/A   Clear
9:15 PM -1.0 °C -3.0 °C -3.0 °C 86% 1024.3 hPa 16.1 km South 5.6 km/h / 1.5 m/s - N/A   Clear
9:35 PM -1.0 °C -4.3 °C -3.0 °C 86% 1024.6 hPa 16.1 km South 9.3 km/h / 2.6 m/s - N/A   Partly Cloudy
9:55 PM 0.0 °C -4.4 °C -3.0 °C 80% 1024.6 hPa 16.1 km WSW 14.8 km/h / 4.1 m/s - N/A   Mostly Cloudy
10:15 PM 0.0 °C -3.6 °C -3.0 °C 80% 1024.6 hPa 16.1 km SW 11.1 km/h / 3.1 m/s - N/A   Partly Cloudy
10:35 PM 0.0 °C - -3.0 °C 80% 1024.6 hPa 16.1 km Calm Calm - N/A   Clear
10:55 PM -1.0 °C - -3.0 °C 86% 1024.9 hPa 16.1 km Calm Calm - N/A   Clear
11:15 PM 0.0 °C -3.1 °C -2.0 °C 87% 1024.9 hPa 16.1 km SW 9.3 km/h / 2.6 m/s - N/A   Mostly Cloudy
11:35 PM 0.0 °C -2.5 °C -2.0 °C 87% 1024.9 hPa 16.1 km SW 7.4 km/h / 2.1 m/s - N/A   Overcast
11:55 PM 0.0 °C -3.6 °C -2.0 °C 87% 1024.9 hPa 16.1 km SW 11.1 km/h / 3.1 m/s - N/A   Overcast